[[{"header":{"parameterUnit":"m.s-1","parameterCategory":2,"la1":30.2991,"la2":30.254,"lo1":-89.0895,"lo2":-89.0444,"dy":0.0017,"dx":0.0017,"nx":28,"ny":28,"refTime":"2024-05-23T21:00:00:Z","depth":"0","parameterNumber":2,"parameterNumberName":"U-component_of_CURRENTS"},"data":[0,0,0,0,0,0,0,0,0,0,0,0,0,0,0,0,0,0,0,0,0,0,0,0,0,0,0,0,0,0,0,0,0,0,0,0,0,0,0,0,0,0,0,0,0,0,0,0,0,0,0,0,0,0,0,0,0,0,0.2852,0.2853,0,0.2861,0.2861,0.286,0.2824,0.2823,0.2823,0.2822,0.2798,0.2798,0.2798,0,0,0,0,0,0,0,0,0,0,0,0,0,0.2836,0.2836,0.2852,0.2853,0.2853,0.2861,0.2861,0.286,0.2824,0.2823,0.2822,0.2822,0.2798,0.2798,0.2798,0,0,0,0,0,0,0,0,0,0,0,0,0,0.284,0.2836,0.2852,0.2839,0.2838,0.2861,0.2861,0.286,0.2824,0.2823,0.2822,0.2821,0.2798,0.2798,0.2798,0.2819,0,0,0.2798,0.2798,0,0,0,0,0,0,0,0,0.2839,0.284,0.284,0.284,0.2839,0.2844,0.2846,0.2846,0.2825,0.2825,0.2822,0.2821,0.2814,0.2812,0.2811,0.2818,0.2817,0.2798,0.2798,0.2798,0.2798,0,0,0,0,0,0,0,0.2839,0.2839,0.2851,0.2841,0.284,0.2844,0.2842,0.2846,0.2822,0.2825,0.2824,0.2831,0.2812,0.2811,0.281,0.2817,0.2798,0.2798,0.2798,0.2798,0.2864,0.2865,0,0,0,0,0,0,0.2846,0.2839,0.2851,0.2852,0.2841,0.2845,0.2843,0.284,0.2822,0.282,0.2832,0.283,0.2812,0.281,0.2809,0.2848,0.2798,0.2798,0.2798,0.2862,0.2864,0.2866,0,0,0,0,0,0,0.2845,0.2846,0.2851,0.285,0.2851,0.2847,0.2843,0.2841,0.284,0.2829,0.2824,0.2834,0.2811,0.2809,0.2822,0.2846,0.2798,0.2798,0.286,0.2863,0.2865,0.2916,0,0,0,0,0,0,0.2844,0.2846,0.2848,0.285,0.2851,0.2861,0.2845,0.2842,0.2848,0.2845,0.2829,0.2826,0.281,0.2822,0.2822,0.2845,0.2798,0.2858,0.2861,0.2864,0.2912,0.292,0.2927,0,0,0,0,0,0.2843,0.2844,0.2848,0.285,0.2853,0.2861,0.2862,0.2853,0.285,0.2848,0.2849,0.2826,0.2842,0.2823,0.2823,0.2847,0.2856,0.286,0.2864,0.2909,0.2918,0.2926,0,0,0,0,0,0,0.2834,0.2841,0.2845,0.2847,0.2856,0.2856,0.2859,0.2861,0.2861,0.2859,0.2845,0.2842,0.2863,0.2854,0.2833,0.2878,0.2848,0.2851,0.2882,0.2891,0.2898,0.29,0.2798,0,0,0,0,0,0.2838,0.284,0.285,0.2853,0.2859,0.2864,0.2869,0.2867,0.287,0.2868,0.2859,0.2863,0.2881,0.2883,0.2887,0.2911,0.2913,0.2929,0.2936,0.2942,0.2946,0.2986,0.2997,0.2879,0.2879,0.2879,0,0,0.2835,0.2842,0.2842,0.2853,0.2858,0.2873,0.2862,0.2871,0.2889,0.2868,0.288,0.2885,0.2894,0.2919,0.2928,0.2912,0.2977,0.2947,0.2952,0.2952,0.2991,0.3003,0.3013,0.2881,0.2881,0.288,0,0,0.2833,0.2838,0.2841,0.2854,0.2872,0.288,0.2887,0.2893,0.2897,0.2922,0.2918,0.2941,0.2952,0.2966,0.2979,0.3033,0.3015,0.3034,0.307,0.311,0.312,0.3128,0.3142,0.3152,0.3037,0.3037,0.3037,0,0.2833,0.2835,0.2844,0.2859,0.2871,0.2887,0.2899,0.2918,0.2927,0.2943,0.2931,0.2981,0.2981,0.3034,0.3051,0.3049,0.3058,0.3033,0.3119,0.3127,0.3135,0.3148,0.3158,0.304,0.3039,0.3039,0.3039,0,0.2838,0.2843,0.2848,0.2872,0.2891,0.2901,0.2934,0.2952,0.2967,0.2988,0.3034,0.3046,0.3074,0.3087,0.3085,0.3147,0.3131,0.3123,0.3093,0.315,0.316,0.3169,0.3044,0.3043,0.3042,0.3041,0,0,0.2812,0.2844,0.2842,0.2854,0.2895,0.2906,0.2954,0.2993,0.3028,0.3055,0.3095,0.3143,0.315,0.3166,0.3171,0.3206,0.3269,0.3189,0.319,0.3197,0.3342,0.3274,0.3277,0.3276,0.3278,0.3279,0.3324,0,0.2807,0.2828,0.2848,0.2871,0.2885,0.2923,0.2965,0.3013,0.3055,0.3099,0.3144,0.3183,0.3183,0.3197,0.324,0.3262,0.3296,0.3256,0.3291,0.3292,0.3219,0.3287,0.314,0.3163,0.3333,0.3335,0.3336,0,0.2793,0.2814,0.283,0.287,0.288,0.2904,0.2971,0.3012,0.3098,0.3129,0.3191,0.3221,0.3288,0.327,0.3355,0.3329,0.3342,0.3356,0.3358,0.3282,0.3241,0.3136,0.3173,0.3118,0.335,0.3349,0.3348,0,0.2757,0.2791,0.2799,0.2814,0.2873,0.2893,0.2933,0.3019,0.3068,0.3149,0.3193,0.327,0.3316,0.3357,0.3399,0.338,0.348,0.3453,0.3404,0.3398,0.3273,0.3253,0.3254,0.3511,0.3511,0.3511,0.351,0,0.273,0.2733,0.2782,0.2788,0.2812,0.287,0.2917,0.297,0.3068,0.3128,0.3203,0.3264,0.3344,0.3411,0.3424,0.3451,0.3505,0.3423,0.3415,0.3286,0.3267,0.3211,0.3193,0.3512,0.3512,0.3511,0.3511,0,0.2674,0.2703,0.2716,0.2773,0.279,0.2811,0.29,0.2944,0.3042,0.3124,0.3152,0.3286,0.3363,0.343,0.3502,0.3482,0.3404,0.3495,0.3326,0.3298,0.3164,0.3153,0.2995,0.2915,0.3435,0.3434,0.3433,0,0.2643,0.2644,0.269,0.27,0.2719,0.2766,0.28,0.2908,0.2965,0.3129,0.3161,0.3285,0.3343,0.3434,0.3428,0.3439,0.3361,0.3295,0.3229,0.3149,0.3133,0.2993,0.2929,0.3084,0.308,0.3077,0.3075,0,0.259,0.2603,0.2618,0.2641,0.2664,0.2698,0.2761,0.2804,0.2934,0.3,0.3103,0.3168,0.3281,0.3245,0.3278,0.3259,0.3124,0.3229,0.3199,0.2905,0.2701,0.2622,0.3055,0.3047,0.3049,0.3051,0.3053,0.3054,0.2545,0.254,0.2561,0.2566,0.2593,0.2611,0.2602,0.2681,0.2737,0.2812,0.2964,0.2998,0.3075,0.31,0.307,0.2945,0.2938,0.2837,0.2846,0.2722,0.2591,0.2953,0.2904,0.2906,0.2907,0.2909,0.291,0,0.2479,0.2479,0.2489,0.2483,0.2463,0.2514,0.255,0.2522,0.2517,0.2638,0.2697,0.2753,0.272,0.2763,0.2702,0.259,0.2455,0.2515,0.2305,0.2276,0.2652,0.2585,0.24,0.24,0.24,0.24,0.24,0.24,0.2448,0.2418,0.2412,0.2345,0.2338,0.2274,0.2264,0.2239,0.2284,0.2289,0.2318,0.241,0.2539,0.2525,0.2408,0.234,0.2188,0.2035,0.2082,0.2389,0.2419,0.2449,0.2382,0.2158,0.2158,0.1572,0.1568,0.1564]},{"header":{"parameterUnit":"m.s-1","parameterCategory":2,"la1":30.2991,"la2":30.254,"lo1":-89.0895,"lo2":-89.0444,"dy":0.0017,"dx":0.0017,"nx":28,"ny":28,"refTime":"2024-05-23T21:00:00:Z","depth":"0","parameterNumber":3,"parameterNumberName":"V-component_of_CURRENTS"},"data":[0,0,0,0,0,0,0,0,0,0,0,0,0,0,0,0,0,0,0,0,0,0,0,0,0,0,0,0,0,0,0,0,0,0,0,0,0,0,0,0,0,0,0,0,0,0,0,0,0,0,0,0,0,0,0,0,0,0,0.0396,0.0395,0,0.037,0.0369,0.0369,0.0347,0.0347,0.0347,0.0346,0.0306,0.0305,0.0304,0,0,0,0,0,0,0,0,0,0,0,0,0,0.0379,0.038,0.0396,0.0395,0.0395,0.037,0.0369,0.0369,0.0347,0.0347,0.0347,0.0346,0.0306,0.0305,0.0304,0,0,0,0,0,0,0,0,0,0,0,0,0,0.0372,0.038,0.0396,0.0382,0.0381,0.037,0.0369,0.0369,0.0347,0.0347,0.0347,0.0346,0.0307,0.0305,0.0304,0.0299,0,0,0.0299,0.0299,0,0,0,0,0,0,0,0,0.0372,0.0372,0.0384,0.0383,0.0382,0.0363,0.0349,0.0345,0.0347,0.0358,0.0346,0.0346,0.0325,0.0322,0.0315,0.0297,0.0295,0.0299,0.0298,0.0298,0.0297,0,0,0,0,0,0,0,0.0373,0.0373,0.0384,0.0384,0.0382,0.0362,0.0361,0.0348,0.0341,0.0357,0.0356,0.0355,0.0324,0.0317,0.0314,0.0294,0.0299,0.0298,0.0297,0.0297,0.0275,0.0276,0,0,0,0,0,0,0.0382,0.0374,0.0385,0.0383,0.0378,0.0362,0.0361,0.0368,0.0342,0.0338,0.0356,0.0355,0.0319,0.0316,0.0313,0.0326,0.0298,0.0296,0.0296,0.0275,0.0275,0.0276,0,0,0,0,0,0,0.0382,0.0383,0.0386,0.0379,0.0378,0.0363,0.037,0.0367,0.0365,0.0341,0.0337,0.0357,0.0319,0.0315,0.0308,0.0323,0.0296,0.0295,0.0275,0.0275,0.0275,0.0339,0,0,0,0,0,0,0.0382,0.0384,0.0391,0.038,0.0378,0.039,0.0371,0.0367,0.0365,0.0364,0.0341,0.0337,0.0319,0.031,0.0307,0.0321,0.0293,0.0274,0.0275,0.0275,0.0336,0.0341,0.0346,0,0,0,0,0,0.0381,0.0396,0.0391,0.0392,0.0389,0.0391,0.0388,0.0376,0.0366,0.0371,0.0353,0.0337,0.0311,0.031,0.0305,0.0319,0.0274,0.0275,0.0275,0.0334,0.034,0.0346,0,0,0,0,0,0,0.0391,0.0395,0.0389,0.0404,0.0401,0.0388,0.039,0.0381,0.037,0.0367,0.0342,0.0337,0.0336,0.0317,0.0316,0.0313,0.0289,0.0289,0.0336,0.0341,0.0346,0.0363,0.0292,0,0,0,0,0,0.0397,0.0409,0.0406,0.0417,0.0417,0.0404,0.0402,0.0395,0.0384,0.0379,0.0363,0.0345,0.0334,0.033,0.0314,0.0315,0.0292,0.032,0.0325,0.0329,0.0339,0.0315,0.0319,0.0278,0.0278,0.0278,0,0,0.0402,0.0407,0.0412,0.042,0.0414,0.0427,0.0402,0.0405,0.0418,0.0377,0.0385,0.036,0.0336,0.0337,0.0335,0.0326,0.0327,0.033,0.0334,0.0341,0.0317,0.0321,0.0324,0.0278,0.0278,0.0278,0,0,0.0424,0.0424,0.0443,0.0447,0.0448,0.0443,0.0447,0.0438,0.0437,0.0441,0.0413,0.04,0.0384,0.0371,0.0363,0.0383,0.035,0.0375,0.0418,0.0395,0.0399,0.0402,0.0375,0.0374,0.0381,0.0381,0.0381,0,0.0429,0.0457,0.0448,0.0469,0.0479,0.0455,0.048,0.0476,0.0467,0.0473,0.0454,0.0429,0.0404,0.041,0.0414,0.0396,0.0374,0.0401,0.0403,0.0405,0.0407,0.0378,0.0377,0.0384,0.0384,0.0384,0.0383,0,0.0469,0.049,0.0501,0.0524,0.0532,0.0548,0.0546,0.0552,0.0543,0.0537,0.0538,0.0499,0.0486,0.0474,0.0451,0.0454,0.043,0.041,0.0392,0.0415,0.0383,0.0381,0.0389,0.0388,0.0387,0.0386,0,0,0.0486,0.0523,0.0529,0.0555,0.0565,0.0581,0.0603,0.0622,0.0647,0.062,0.0645,0.061,0.0579,0.0567,0.053,0.0509,0.0495,0.047,0.0467,0.045,0.0441,0.0424,0.0419,0.0474,0.0474,0.0474,0.0413,0,0.0521,0.0579,0.0586,0.064,0.067,0.0665,0.0695,0.0706,0.0705,0.0719,0.0677,0.0676,0.0619,0.0611,0.0581,0.052,0.0493,0.0513,0.0416,0.0413,0.0401,0.0418,0.0455,0.0404,0.0411,0.041,0.041,0,0.0563,0.0599,0.0661,0.0717,0.073,0.0755,0.0803,0.0828,0.0835,0.0834,0.0815,0.0773,0.0738,0.0683,0.0592,0.0607,0.0531,0.0476,0.0472,0.0435,0.0392,0.0382,0.04,0.0322,0.0406,0.0407,0.0407,0,0.0595,0.0655,0.0711,0.0729,0.0781,0.0811,0.0838,0.0861,0.0902,0.09,0.0922,0.0859,0.0842,0.074,0.0615,0.0604,0.0511,0.0479,0.0391,0.0388,0.0391,0.0389,0.0331,0.0413,0.0413,0.0413,0.0413,0,0.0637,0.0682,0.0732,0.0765,0.0843,0.0858,0.0936,0.0954,0.0989,0.105,0.098,0.1006,0.0856,0.0779,0.0649,0.0519,0.0532,0.0405,0.0376,0.0413,0.0413,0.0321,0.0271,0.0411,0.0411,0.0412,0.0412,0,0.0668,0.0698,0.0769,0.0834,0.0863,0.0918,0.1005,0.1061,0.1084,0.1159,0.1161,0.1117,0.1025,0.0864,0.0704,0.0578,0.0395,0.0386,0.0437,0.0415,0.0262,0.0213,0.0105,0.0069,0.0286,0.0285,0.0285,0,0.0689,0.0729,0.0821,0.0872,0.0905,0.0989,0.1055,0.1106,0.1172,0.1237,0.128,0.1213,0.1195,0.095,0.0715,0.0489,0.0384,0.0358,0.0341,0.0266,0.019,0.0148,0.0124,0.0365,0.0365,0.0365,0.0366,0,0.0729,0.076,0.0819,0.0927,0.1004,0.1104,0.1198,0.1268,0.1343,0.1409,0.1479,0.1468,0.1254,0.1058,0.074,0.057,0.032,0.0353,0.0267,0.0246,0.0204,0.0153,0.0384,0.0366,0.0366,0.0366,0.0366,0.0366,0.0756,0.0806,0.0886,0.0988,0.1082,0.1206,0.1297,0.1405,0.153,0.1649,0.1631,0.1663,0.1383,0.097,0.0718,0.0331,0.0322,0.0232,0.0177,0.014,0.0116,0.0344,0.0298,0.0297,0.0297,0.0296,0.0296,0,0.0788,0.0849,0.0943,0.1067,0.1171,0.1221,0.1387,0.1488,0.1646,0.1765,0.1834,0.1757,0.1399,0.1014,0.0494,0.0224,0.0117,0.008,0.0042,0.0023,0.0227,0.0242,0.0192,0.0192,0.0192,0.0192,0.0192,0.0192,0.0809,0.0894,0.0945,0.1115,0.1207,0.136,0.146,0.1618,0.1748,0.1922,0.1989,0.2018,0.1774,0.0819,0.0225,0.0079,-0.0088,-0.0136,-0.0227,-0.0071,-0.006,-0.005,-0.0046,-0.0156,-0.0157,-0.038,-0.0382,-0.0384]}],[{"header":{"parameterUnit":"m.s-1","parameterCategory":2,"la1":30.2991,"la2":30.254,"lo1":-89.0895,"lo2":-89.0444,"dy":0.0017,"dx":0.0017,"nx":28,"ny":28,"refTime":"2024-05-23T21:00:00:Z","depth":"2","parameterNumber":2,"parameterNumberName":"U-component_of_CURRENTS"},"data":[0,0,0,0,0,0,0,0,0,0,0,0,0,0,0,0,0,0,0,0,0,0,0,0,0,0,0,0,0,0,0,0,0,0,0,0,0,0,0,0,0,0,0,0,0,0,0,0,0,0,0,0,0,0,0,0,0,0,0.2548,0.2549,0,0.2557,0.2557,0.2557,0.2536,0.2536,0.2535,0.2535,0.2525,0.2525,0.2525,0,0,0,0,0,0,0,0,0,0,0,0,0,0.2536,0.2536,0.2548,0.2549,0.2549,0.2557,0.2557,0.2557,0.2536,0.2536,0.2535,0.2535,0.2525,0.2525,0.2525,0,0,0,0,0,0,0,0,0,0,0,0,0,0.2539,0.2535,0.2548,0.2542,0.2542,0.2558,0.2557,0.2557,0.2536,0.2536,0.2535,0.2535,0.2525,0.2525,0.2525,0.2536,0,0,0.2526,0.2526,0,0,0,0,0,0,0,0,0.2539,0.2539,0.2543,0.2543,0.2543,0.2548,0.2549,0.255,0.2536,0.2535,0.2535,0.2534,0.2534,0.2533,0.2531,0.2536,0.2535,0.2526,0.2526,0.2526,0.2526,0,0,0,0,0,0,0,0.2539,0.2539,0.2548,0.2544,0.2544,0.2548,0.2547,0.2549,0.2534,0.2535,0.2534,0.2541,0.2533,0.2531,0.2531,0.2535,0.2526,0.2526,0.2526,0.2526,0.2588,0.259,0,0,0,0,0,0,0.2544,0.2538,0.2548,0.2549,0.2544,0.2548,0.2547,0.2544,0.2534,0.2533,0.2542,0.254,0.2531,0.2531,0.253,0.2573,0.2526,0.2526,0.2526,0.2587,0.2589,0.259,0,0,0,0,0,0,0.2544,0.2545,0.2548,0.2547,0.2549,0.2549,0.2546,0.2545,0.2552,0.254,0.2538,0.2551,0.2531,0.253,0.2546,0.2571,0.2526,0.2526,0.2585,0.2587,0.2589,0.2639,0,0,0,0,0,0,0.2543,0.2544,0.2549,0.2547,0.2549,0.2557,0.2547,0.2545,0.2558,0.2556,0.2548,0.2546,0.253,0.2546,0.2546,0.2571,0.2526,0.2583,0.2586,0.2589,0.2635,0.2643,0.2649,0,0,0,0,0,0.2542,0.2544,0.2549,0.2551,0.2553,0.2558,0.2559,0.2555,0.2559,0.256,0.2565,0.2546,0.2566,0.2548,0.2547,0.2572,0.2581,0.2585,0.2588,0.2632,0.2641,0.2649,0,0,0,0,0,0,0.2539,0.2543,0.2547,0.255,0.2558,0.2556,0.2562,0.2566,0.2571,0.2575,0.2563,0.2561,0.2586,0.2577,0.2557,0.2601,0.2572,0.2576,0.2606,0.2614,0.2621,0.2627,0.2526,0,0,0,0,0,0.2544,0.2546,0.2553,0.2557,0.2562,0.2568,0.2574,0.2575,0.2579,0.2581,0.2578,0.2585,0.2601,0.2605,0.2609,0.2631,0.2633,0.265,0.2657,0.2663,0.2669,0.2705,0.2716,0.2602,0.2602,0.2602,0,0,0.2543,0.2549,0.2549,0.2557,0.2563,0.2576,0.2568,0.258,0.2598,0.2581,0.2601,0.2607,0.2613,0.2637,0.2648,0.2632,0.2696,0.2667,0.2672,0.2675,0.271,0.2721,0.2731,0.2605,0.2604,0.2604,0,0,0.2544,0.255,0.2553,0.2564,0.2582,0.2588,0.2597,0.2605,0.2613,0.2639,0.2637,0.2663,0.2674,0.2686,0.2696,0.2747,0.2733,0.275,0.2787,0.2822,0.2832,0.284,0.2854,0.2863,0.2752,0.2752,0.2752,0,0.2548,0.2549,0.2557,0.2569,0.2581,0.2598,0.2609,0.2627,0.2641,0.2658,0.2651,0.2701,0.2702,0.2748,0.2766,0.2763,0.2772,0.2752,0.2831,0.2839,0.2847,0.2859,0.2868,0.2755,0.2755,0.2754,0.2754,0,0.2553,0.2559,0.2564,0.2585,0.2602,0.2612,0.2641,0.2663,0.2684,0.2704,0.2751,0.2762,0.2792,0.2802,0.2801,0.2861,0.2846,0.2835,0.2807,0.2861,0.287,0.2879,0.2759,0.2758,0.2757,0.2756,0,0,0.2535,0.256,0.2561,0.257,0.2608,0.2617,0.2663,0.27,0.2736,0.2766,0.2808,0.2852,0.2865,0.2879,0.2884,0.2916,0.2978,0.2903,0.2903,0.2911,0.3046,0.2977,0.2979,0.2982,0.2984,0.2986,0.3029,0,0.2532,0.255,0.2566,0.2588,0.2599,0.2635,0.2675,0.2721,0.2763,0.2809,0.2851,0.2892,0.2894,0.2913,0.2952,0.2973,0.3005,0.2966,0.2997,0.2997,0.2925,0.2989,0.2742,0.2754,0.3037,0.3039,0.304,0,0.2521,0.2538,0.2553,0.2588,0.2597,0.2621,0.2685,0.2725,0.2808,0.284,0.2902,0.2932,0.2999,0.2983,0.3063,0.304,0.3052,0.3063,0.3064,0.2988,0.2945,0.2748,0.276,0.3055,0.3053,0.3052,0.3051,0,0.2491,0.252,0.2529,0.2541,0.2593,0.2615,0.2654,0.2736,0.2784,0.2867,0.2912,0.2984,0.3035,0.307,0.3111,0.3092,0.3184,0.3155,0.3102,0.3096,0.2886,0.2858,0.3208,0.3208,0.3208,0.3208,0.3207,0,0.2467,0.2471,0.2516,0.2521,0.2547,0.26,0.2648,0.27,0.2794,0.2851,0.2928,0.2983,0.3064,0.3126,0.3135,0.3155,0.3209,0.3122,0.3112,0.2895,0.287,0.3127,0.3117,0.3209,0.3209,0.3209,0.3208,0,0.2419,0.2445,0.2457,0.251,0.2527,0.2551,0.2638,0.2678,0.2778,0.2856,0.2887,0.3013,0.3087,0.3149,0.3213,0.3189,0.3203,0.3191,0.2925,0.2883,0.3079,0.3072,0.3129,0.3127,0.3126,0.3125,0.3123,0,0.2391,0.2393,0.2437,0.2447,0.2465,0.2515,0.2547,0.2652,0.2701,0.286,0.2886,0.3011,0.3059,0.3139,0.3118,0.312,0.3186,0.2883,0.2801,0.3092,0.3077,0.3071,0.3066,0.2538,0.2532,0.2527,0.2524,0,0.2342,0.2357,0.2369,0.2392,0.2416,0.2445,0.2505,0.2542,0.2665,0.273,0.2819,0.2878,0.2975,0.2873,0.29,0.2863,0.286,0.2786,0.3168,0.2602,0.2539,0.2523,0.2536,0.2481,0.2485,0.2489,0.2491,0.2493,0.2303,0.2297,0.2315,0.2322,0.2348,0.2356,0.2346,0.2414,0.2462,0.2528,0.2663,0.266,0.2697,0.2611,0.2527,0.2462,0.266,0.252,0.2532,0.255,0.248,0.2419,0.2323,0.2327,0.2329,0.2332,0.2334,0,0.224,0.2239,0.2245,0.2237,0.2215,0.2269,0.2292,0.2256,0.2244,0.2336,0.2382,0.2205,0.2145,0.2179,0.2018,0.2015,0.1975,0.192,0.184,0.1885,0.1925,0.1819,0.1489,0.1487,0.1484,0.1481,0,0,0.221,0.2178,0.2168,0.2099,0.2096,0.2033,0.2019,0.1981,0.2,0.1954,0.1931,0.2088,0.2141,0.1802,0.1748,0.1591,0.1725,0.1525,0.2208,0.2162,0.2197,0.2281,0.2172,0,0,0,0,0]},{"header":{"parameterUnit":"m.s-1","parameterCategory":2,"la1":30.2991,"la2":30.254,"lo1":-89.0895,"lo2":-89.0444,"dy":0.0017,"dx":0.0017,"nx":28,"ny":28,"refTime":"2024-05-23T21:00:00:Z","depth":"2","parameterNumber":3,"parameterNumberName":"V-component_of_CURRENTS"},"data":[0,0,0,0,0,0,0,0,0,0,0,0,0,0,0,0,0,0,0,0,0,0,0,0,0,0,0,0,0,0,0,0,0,0,0,0,0,0,0,0,0,0,0,0,0,0,0,0,0,0,0,0,0,0,0,0,0,0,0.0237,0.0237,0,0.021,0.021,0.0209,0.0191,0.0191,0.0191,0.0191,0.0153,0.0153,0.0152,0,0,0,0,0,0,0,0,0,0,0,0,0,0.0226,0.0227,0.0237,0.0237,0.0236,0.021,0.021,0.0209,0.0191,0.0191,0.0191,0.0191,0.0154,0.0153,0.0151,0,0,0,0,0,0,0,0,0,0,0,0,0,0.0217,0.0227,0.0237,0.0225,0.0224,0.021,0.021,0.0209,0.0191,0.0191,0.0191,0.0191,0.0154,0.0153,0.0151,0.0143,0,0,0.0147,0.0146,0,0,0,0,0,0,0,0,0.0218,0.0217,0.0227,0.0226,0.0225,0.0205,0.0192,0.0187,0.0191,0.0202,0.0191,0.0191,0.0171,0.0168,0.0161,0.0141,0.0139,0.0147,0.0146,0.0145,0.0145,0,0,0,0,0,0,0,0.0219,0.0218,0.0225,0.0227,0.0225,0.0205,0.0204,0.0191,0.0185,0.0201,0.02,0.0199,0.017,0.0162,0.016,0.0139,0.0147,0.0145,0.0145,0.0144,0.012,0.0121,0,0,0,0,0,0,0.0227,0.0219,0.0226,0.0224,0.0223,0.0206,0.0205,0.021,0.0186,0.0183,0.0199,0.0198,0.0165,0.0162,0.0159,0.0171,0.0145,0.0144,0.0143,0.012,0.0121,0.0121,0,0,0,0,0,0,0.0227,0.0228,0.0227,0.0222,0.022,0.0207,0.0213,0.021,0.0209,0.0185,0.0181,0.0202,0.0165,0.0161,0.0155,0.0168,0.0143,0.0142,0.012,0.012,0.0121,0.018,0,0,0,0,0,0,0.0227,0.0228,0.0235,0.0223,0.0221,0.023,0.0213,0.0209,0.0208,0.0207,0.0186,0.0182,0.0165,0.0157,0.0153,0.0166,0.0141,0.012,0.012,0.0121,0.0178,0.0182,0.0186,0,0,0,0,0,0.0227,0.024,0.0236,0.0237,0.0231,0.0231,0.0228,0.0217,0.0209,0.0214,0.0198,0.0183,0.0157,0.0156,0.0152,0.0164,0.0119,0.012,0.0121,0.0176,0.0182,0.0186,0,0,0,0,0,0,0.0238,0.0239,0.0234,0.0247,0.0243,0.0228,0.0231,0.0222,0.0213,0.0211,0.0187,0.0183,0.0182,0.0163,0.0162,0.0157,0.0135,0.0135,0.0179,0.0184,0.0188,0.0205,0.0139,0,0,0,0,0,0.0244,0.0255,0.025,0.0259,0.0259,0.0245,0.0243,0.0237,0.0227,0.0222,0.0208,0.019,0.0179,0.0174,0.0159,0.0158,0.0136,0.0162,0.0166,0.017,0.018,0.0156,0.0159,0.0123,0.0123,0.0123,0,0,0.025,0.0252,0.0257,0.0262,0.0256,0.0267,0.0244,0.0246,0.0258,0.022,0.0229,0.0205,0.0181,0.0181,0.0179,0.0169,0.0168,0.0171,0.0175,0.0182,0.0157,0.0161,0.0164,0.0123,0.0123,0.0123,0,0,0.0271,0.027,0.0287,0.029,0.029,0.0283,0.0288,0.0279,0.0278,0.0282,0.0256,0.0243,0.0227,0.0213,0.0204,0.0222,0.0191,0.0214,0.0253,0.023,0.0233,0.0236,0.0211,0.0211,0.0218,0.0218,0.0218,0,0.0277,0.0301,0.0291,0.0309,0.0319,0.0296,0.0318,0.0314,0.0305,0.031,0.0294,0.0269,0.0245,0.0247,0.0251,0.0234,0.0213,0.0238,0.0237,0.0239,0.024,0.0215,0.0214,0.0221,0.0221,0.0221,0.022,0,0.0313,0.0332,0.0342,0.0361,0.0368,0.0382,0.0378,0.0385,0.0377,0.0371,0.0371,0.0334,0.0321,0.0308,0.0286,0.0286,0.0266,0.0245,0.0227,0.0248,0.0219,0.0217,0.0225,0.0224,0.0224,0.0223,0,0,0.0331,0.0362,0.0368,0.0392,0.0399,0.0413,0.0432,0.0448,0.0471,0.0446,0.0469,0.0433,0.0407,0.0394,0.0359,0.0336,0.0322,0.03,0.0297,0.0283,0.0271,0.0255,0.0251,0.0301,0.0301,0.0301,0.0246,0,0.0364,0.0416,0.042,0.047,0.0497,0.0491,0.0519,0.0527,0.0524,0.0537,0.0495,0.0495,0.0442,0.0437,0.0406,0.0347,0.032,0.0339,0.0247,0.0245,0.0234,0.0249,0.0265,0.0218,0.0244,0.0244,0.0243,0,0.0403,0.0435,0.0492,0.0542,0.0554,0.0577,0.062,0.0643,0.0646,0.0645,0.0627,0.0587,0.0553,0.0503,0.0414,0.0429,0.0358,0.0304,0.03,0.0266,0.0226,0.0201,0.0213,0.0239,0.024,0.024,0.024,0,0.0435,0.0488,0.054,0.0556,0.0602,0.0631,0.0656,0.0676,0.0713,0.071,0.073,0.0669,0.0654,0.0556,0.0439,0.0427,0.0338,0.0305,0.0223,0.0221,0.0207,0.0204,0.0242,0.0242,0.0242,0.0242,0.0242,0,0.0475,0.0517,0.0562,0.0591,0.0666,0.0678,0.0751,0.0767,0.0798,0.0854,0.0789,0.081,0.0668,0.0595,0.0472,0.0348,0.036,0.0237,0.0209,0.0227,0.0227,0.0223,0.0221,0.024,0.024,0.0241,0.0241,0,0.0506,0.0533,0.0598,0.0657,0.0685,0.0739,0.0821,0.0871,0.0893,0.0961,0.0964,0.0918,0.083,0.0678,0.0523,0.0405,0.0274,0.0223,0.0253,0.023,0.0162,0.0164,0.0129,0.0129,0.0128,0.0127,0.0127,0,0.0527,0.0564,0.065,0.0698,0.0729,0.081,0.0873,0.0918,0.0978,0.1035,0.1074,0.1009,0.0985,0.0752,0.053,0.0318,0.0279,0.0179,0.0156,0.0176,0.0152,0.0156,0.0159,0.0157,0.0157,0.0157,0.0156,0,0.0566,0.0595,0.0651,0.0753,0.0827,0.0921,0.1009,0.1073,0.1139,0.1198,0.1256,0.1238,0.1033,0.0827,0.0531,0.0377,0.0213,0.0168,0.0185,0.0186,0.0198,0.0176,0.0179,0.0155,0.0155,0.0155,0.0155,0.0155,0.0595,0.0641,0.0715,0.0814,0.0904,0.1019,0.1103,0.1199,0.1311,0.1405,0.1386,0.1369,0.1126,0.0759,0.0492,0.0206,0.0227,0.0111,0.0114,0.0116,0.0132,0.0142,0.0091,0.0091,0.0091,0.009,0.009,0,0.0629,0.0684,0.0772,0.0889,0.0987,0.1038,0.1188,0.1272,0.141,0.1489,0.1539,0.1307,0.1078,0.0789,0.0383,0.0141,0.0113,0.0041,0.0067,0.0072,0.0075,0.009,0.0037,0.0036,0.0035,0.0034,0,0,0.0648,0.0728,0.0774,0.0935,0.1024,0.1167,0.1258,0.1386,0.1477,0.1554,0.1547,0.1514,0.1175,0.0863,0.0529,0.029,0.0231,0.0228,0.03,0.0377,0.0383,0.0146,0.0177,0,0,0,0,0]}],[{"header":{"parameterUnit":"m.s-1","parameterCategory":2,"la1":30.2991,"la2":30.254,"lo1":-89.0895,"lo2":-89.0444,"dy":0.0017,"dx":0.0017,"nx":28,"ny":28,"refTime":"2024-05-23T21:00:00:Z","depth":"4","parameterNumber":2,"parameterNumberName":"U-component_of_CURRENTS"},"data":[0,0,0,0,0,0,0,0,0,0,0,0,0,0,0,0,0,0,0,0,0,0,0,0,0,0,0,0,0,0,0,0,0,0,0,0,0,0,0,0,0,0,0,0,0,0,0,0,0,0,0,0,0,0,0,0,0,0,0.1631,0.1632,0,0.1673,0.1674,0.1674,0.171,0.1711,0.1711,0.1712,0.1766,0.1767,0.1767,0,0,0,0,0,0,0,0,0,0,0,0,0,0.1586,0.1587,0.1631,0.1632,0.1633,0.1673,0.1674,0.1674,0.171,0.1711,0.1711,0.1712,0.1766,0.1766,0.1767,0,0,0,0,0,0,0,0,0,0,0,0,0,0.1612,0.1587,0.1631,0.1657,0.166,0.1673,0.1674,0.1674,0.171,0.1711,0.1712,0.1713,0.1765,0.1766,0.1768,0.1756,0,0,0.1771,0.1772,0,0,0,0,0,0,0,0,0.1611,0.1613,0.1653,0.1656,0.1659,0.169,0.1678,0.1703,0.1709,0.1688,0.1712,0.1713,0.1742,0.1746,0.1747,0.1758,0.1761,0.1772,0.1772,0.1773,0.1773,0,0,0,0,0,0,0,0.1609,0.1612,0.1645,0.1654,0.1657,0.1669,0.1673,0.1682,0.1707,0.169,0.1693,0.1702,0.1744,0.1746,0.1749,0.1762,0.1772,0.1773,0.1773,0.1774,0.1866,0.1867,0,0,0,0,0,0,0.1608,0.161,0.1644,0.1647,0.164,0.1669,0.1674,0.1677,0.1707,0.1714,0.1701,0.1704,0.1743,0.1748,0.1751,0.1826,0.1773,0.1774,0.1775,0.1864,0.1866,0.1868,0,0,0,0,0,0,0.1606,0.161,0.1642,0.1632,0.1637,0.1669,0.1672,0.1677,0.1715,0.1716,0.1722,0.1738,0.1744,0.1749,0.1791,0.1826,0.1775,0.1776,0.1862,0.1864,0.1867,0.1921,0,0,0,0,0,0,0.1605,0.1609,0.1629,0.1632,0.1638,0.1666,0.1671,0.1677,0.1718,0.1722,0.1749,0.1753,0.1746,0.1789,0.1792,0.1826,0.1777,0.186,0.1863,0.1866,0.1917,0.1925,0.1932,0,0,0,0,0,0.1603,0.1616,0.1629,0.1635,0.1658,0.1667,0.1672,0.1696,0.1719,0.1734,0.1762,0.1754,0.1812,0.1792,0.1795,0.183,0.1858,0.1862,0.1866,0.1914,0.1924,0.1932,0,0,0,0,0,0,0.1608,0.1621,0.1636,0.1654,0.1671,0.1675,0.17,0.1717,0.175,0.1769,0.1771,0.1777,0.1826,0.1823,0.1801,0.1867,0.1835,0.184,0.1871,0.188,0.1888,0.1893,0.1778,0,0,0,0,0,0.1618,0.1635,0.1645,0.1666,0.1677,0.1697,0.1714,0.173,0.1751,0.1769,0.1789,0.1815,0.1838,0.1856,0.187,0.1905,0.1905,0.1932,0.1939,0.1945,0.1954,0.1986,0.1997,0.188,0.188,0.188,0,0,0.1628,0.1639,0.165,0.167,0.1688,0.1706,0.171,0.1743,0.1771,0.1769,0.1825,0.1842,0.1853,0.1893,0.1915,0.1899,0.198,0.195,0.1955,0.196,0.1991,0.2002,0.2012,0.1883,0.1882,0.1882,0,0,0.164,0.1665,0.1679,0.1696,0.1729,0.1738,0.1757,0.1782,0.181,0.1857,0.1867,0.1909,0.1943,0.1956,0.1967,0.2025,0.2017,0.2036,0.208,0.2112,0.2121,0.213,0.2144,0.2153,0.2041,0.2041,0.2041,0,0.1658,0.167,0.1687,0.1705,0.1726,0.1758,0.1778,0.1807,0.1848,0.1876,0.1886,0.1959,0.1972,0.2018,0.2043,0.2042,0.2054,0.2042,0.2121,0.2129,0.2137,0.2149,0.2159,0.2044,0.2044,0.2043,0.2043,0,0.1667,0.1693,0.1705,0.1738,0.1763,0.1787,0.1822,0.1864,0.1909,0.1937,0.2007,0.2028,0.2072,0.2085,0.2086,0.215,0.2139,0.2124,0.2095,0.2152,0.2161,0.217,0.2049,0.2047,0.2046,0.2046,0,0,0.1658,0.1703,0.1711,0.1731,0.1783,0.1797,0.1858,0.1906,0.1955,0.2011,0.2068,0.2123,0.215,0.2164,0.2174,0.2206,0.2273,0.2199,0.2199,0.2207,0.234,0.2183,0.2177,0.2277,0.2278,0.228,0.2324,0,0.1662,0.1695,0.172,0.1763,0.178,0.1831,0.1879,0.1938,0.1996,0.2061,0.211,0.2169,0.2175,0.2208,0.2245,0.2269,0.23,0.2262,0.2289,0.2289,0.2138,0.2183,0.2286,0.233,0.2332,0.2334,0.2335,0,0.1653,0.1679,0.1717,0.1772,0.1786,0.1827,0.1911,0.196,0.2057,0.2104,0.2178,0.2218,0.2293,0.2281,0.236,0.234,0.2353,0.2361,0.2362,0.2202,0.2148,0.2263,0.2351,0.2349,0.2348,0.2347,0.2346,0,0.1616,0.1671,0.1703,0.1723,0.1794,0.1837,0.1889,0.1984,0.2038,0.2145,0.22,0.2279,0.234,0.2374,0.2413,0.2399,0.248,0.2452,0.2319,0.2308,0.2412,0.2403,0.2501,0.2501,0.2501,0.2501,0.2501,0,0.1585,0.1614,0.1697,0.1712,0.1765,0.183,0.1904,0.1968,0.2074,0.2132,0.223,0.2279,0.2373,0.2429,0.2437,0.2406,0.2504,0.2331,0.231,0.2434,0.2426,0.2418,0.2408,0.2502,0.2502,0.2502,0.2502,0,0.1528,0.1582,0.1622,0.1712,0.1746,0.1791,0.1906,0.1951,0.2071,0.2152,0.2193,0.2316,0.2375,0.2439,0.2495,0.2426,0.2411,0.2375,0.2509,0.2494,0.221,0.2203,0.2216,0.2211,0.2206,0.2203,0.22,0,0.1495,0.1512,0.1613,0.1642,0.1688,0.1768,0.1814,0.1936,0.1981,0.2145,0.2164,0.2284,0.2342,0.2297,0.2372,0.2364,0.2338,0.231,0.225,0.2204,0.2183,0.2182,0.2181,0.2193,0.2192,0.219,0.2189,0,0.143,0.1484,0.1519,0.1581,0.1636,0.1682,0.1762,0.1785,0.1916,0.2047,0.2077,0.2104,0.2167,0.2193,0.2212,0.2201,0.2311,0.2264,0.2272,0.2215,0.2176,0.2159,0.2163,0.2174,0.2176,0.2178,0.2179,0,0.1389,0.1398,0.1457,0.1494,0.1559,0.1568,0.1624,0.1666,0.1727,0.1901,0.1904,0.2024,0.2141,0.2109,0.2123,0.2104,0.2063,0.1979,0.2001,0.2019,0.1933,0.1853,0.1737,0,0,0,0,0,0.1337,0.133,0.136,0.1383,0.1441,0.148,0.1569,0.1628,0.1758,0.1726,0.1809,0.1848,0.187,0.1933,0.1872,0.2036,0.2075,0.1955,0.1991,0.209,0.2108,0.2023,0,0,0,0,0,0,0.1298,0.1326,0.1322,0.1283,0.1283,0.1326,0.1381,0.1471,0.1457,0.1601,0.1623,0.1729,0.1782,0.1887,0.1837,0.1854,0.1834,0.2032,0.2027,0.208,0.2096,0.211,0.203,0,0,0,0,0]},{"header":{"parameterUnit":"m.s-1","parameterCategory":2,"la1":30.2991,"la2":30.254,"lo1":-89.0895,"lo2":-89.0444,"dy":0.0017,"dx":0.0017,"nx":28,"ny":28,"refTime":"2024-05-23T21:00:00:Z","depth":"4","parameterNumber":3,"parameterNumberName":"V-component_of_CURRENTS"},"data":[0,0,0,0,0,0,0,0,0,0,0,0,0,0,0,0,0,0,0,0,0,0,0,0,0,0,0,0,0,0,0,0,0,0,0,0,0,0,0,0,0,0,0,0,0,0,0,0,0,0,0,0,0,0,0,0,0,0,0.0122,0.0122,0,0.0103,0.0103,0.0103,0.0092,0.0092,0.0092,0.0092,0.0065,0.0064,0.0063,0,0,0,0,0,0,0,0,0,0,0,0,0,0.0116,0.0116,0.0122,0.0122,0.0122,0.0103,0.0103,0.0103,0.0092,0.0092,0.0092,0.0092,0.0065,0.0064,0.0063,0,0,0,0,0,0,0,0,0,0,0,0,0,0.0109,0.0116,0.0122,0.0115,0.0114,0.0103,0.0103,0.0103,0.0092,0.0092,0.0092,0.0092,0.0065,0.0064,0.0063,0.0056,0,0,0.006,0.0059,0,0,0,0,0,0,0,0,0.011,0.0109,0.0116,0.0115,0.0114,0.01,0.0091,0.0087,0.0092,0.0099,0.0092,0.0092,0.0076,0.0074,0.007,0.0055,0.0053,0.006,0.0059,0.0058,0.0058,0,0,0,0,0,0,0,0.011,0.011,0.0114,0.0116,0.0115,0.0101,0.01,0.009,0.0087,0.0099,0.0098,0.0097,0.0076,0.0071,0.0069,0.0053,0.006,0.0059,0.0058,0.0057,0.0041,0.0041,0,0,0,0,0,0,0.0116,0.0111,0.0115,0.0113,0.0113,0.0101,0.01,0.0104,0.0087,0.0085,0.0097,0.0096,0.0073,0.007,0.0068,0.0079,0.0058,0.0057,0.0057,0.004,0.0041,0.0041,0,0,0,0,0,0,0.0116,0.0116,0.0115,0.0112,0.0111,0.0102,0.0106,0.0104,0.0104,0.0086,0.0084,0.01,0.0073,0.007,0.0066,0.0077,0.0057,0.0056,0.004,0.0041,0.0041,0.0087,0,0,0,0,0,0,0.0116,0.0117,0.0122,0.0112,0.0111,0.0118,0.0106,0.0104,0.0104,0.0103,0.0088,0.0085,0.0072,0.0068,0.0065,0.0075,0.0055,0.004,0.004,0.0041,0.0085,0.0089,0.0092,0,0,0,0,0,0.0116,0.0125,0.0123,0.0123,0.0119,0.0119,0.0117,0.0109,0.0104,0.0109,0.0098,0.0086,0.0068,0.0067,0.0064,0.0074,0.004,0.004,0.0041,0.0083,0.0088,0.0092,0,0,0,0,0,0,0.0125,0.0124,0.0122,0.0131,0.0129,0.0117,0.012,0.0114,0.0109,0.0107,0.009,0.0087,0.0087,0.0072,0.0072,0.0069,0.0052,0.0051,0.0085,0.0089,0.0093,0.0105,0.0054,0,0,0,0,0,0.013,0.0138,0.0133,0.0141,0.0141,0.0131,0.013,0.0126,0.0118,0.0116,0.0106,0.0093,0.0085,0.0082,0.0071,0.007,0.0052,0.0073,0.0076,0.0079,0.0087,0.0065,0.0068,0.0042,0.0042,0.0042,0,0,0.0134,0.0136,0.014,0.0143,0.0139,0.0148,0.0131,0.0133,0.0143,0.0114,0.0123,0.0105,0.0087,0.0087,0.0086,0.0078,0.0076,0.008,0.0083,0.0089,0.0066,0.0069,0.0071,0.0043,0.0043,0.0043,0,0,0.015,0.015,0.0163,0.0165,0.0166,0.0161,0.0165,0.0158,0.0159,0.0163,0.0144,0.0134,0.0124,0.0112,0.0105,0.0119,0.0095,0.0114,0.0144,0.0123,0.0125,0.0127,0.0107,0.0107,0.0117,0.0117,0.0117,0,0.0156,0.0174,0.0166,0.018,0.0187,0.0171,0.0188,0.0186,0.0181,0.0185,0.0174,0.0156,0.0137,0.0138,0.0142,0.0128,0.0112,0.0132,0.0129,0.013,0.013,0.011,0.0109,0.0119,0.0119,0.0119,0.0119,0,0.0181,0.0197,0.0205,0.0219,0.0225,0.0236,0.0235,0.0242,0.0238,0.0233,0.0234,0.0206,0.0197,0.0186,0.0169,0.0167,0.0152,0.0135,0.0121,0.0136,0.0113,0.0111,0.0123,0.0122,0.0121,0.0121,0,0,0.0193,0.0219,0.0223,0.0243,0.025,0.0261,0.0278,0.0291,0.0309,0.0292,0.0311,0.0283,0.0263,0.0253,0.0226,0.0205,0.0191,0.0177,0.0174,0.0162,0.0147,0.0134,0.013,0.0174,0.0174,0.0174,0.0128,0,0.0218,0.0257,0.0262,0.0302,0.0323,0.0322,0.0345,0.0353,0.0352,0.0364,0.0331,0.0333,0.0291,0.0288,0.0261,0.0212,0.0188,0.0205,0.013,0.0128,0.0118,0.0128,0.0173,0.0127,0.0126,0.0126,0.0125,0,0.0245,0.027,0.0315,0.0357,0.0367,0.0389,0.0426,0.0446,0.045,0.045,0.0436,0.0407,0.0378,0.0339,0.0263,0.0277,0.0218,0.0173,0.017,0.0142,0.0111,0.0107,0.0121,0.0122,0.0122,0.0122,0.0122,0,0.0265,0.0309,0.0351,0.0364,0.0405,0.0431,0.0455,0.0473,0.0504,0.0505,0.0521,0.0471,0.0462,0.038,0.0283,0.0274,0.0196,0.0171,0.0103,0.0101,0.0106,0.0104,0.0116,0.0116,0.0116,0.0116,0.0116,0,0.029,0.0325,0.0367,0.0391,0.0454,0.0468,0.053,0.0547,0.0575,0.0618,0.057,0.0583,0.0472,0.041,0.0308,0.0204,0.0213,0.0113,0.009,0.0125,0.0127,0.0104,0.0103,0.0114,0.0115,0.0115,0.0115,0,0.0307,0.0332,0.0386,0.044,0.0467,0.0513,0.0588,0.0629,0.0652,0.0705,0.0709,0.0671,0.0594,0.0473,0.0343,0.025,0.014,0.0098,0.0152,0.0132,0.0051,0.0053,0.0021,0.002,0.002,0.0019,0.0018,0,0.0318,0.0348,0.0426,0.0467,0.0497,0.0568,0.0623,0.0668,0.0713,0.0758,0.0786,0.0733,0.0687,0.0505,0.0364,0.0172,0.0137,0.0073,0.0052,0.0061,0.0042,0.0046,0.0049,0.0017,0.0017,0.0017,0.0017,0,0.0339,0.0369,0.0415,0.0503,0.0569,0.0648,0.0724,0.0764,0.0821,0.0839,0.085,0.0757,0.0674,0.0514,0.0368,0.0225,0.0109,0.0065,0.0065,0.0045,0.0056,0.0039,0.0043,0.0015,0.0015,0.0015,0.0015,0,0.0357,0.0391,0.0456,0.0536,0.0621,0.0705,0.0744,0.0803,0.0852,0.0892,0.0892,0.08,0.0746,0.0543,0.0407,0.0267,0.0221,0.0156,0.015,0.0151,0.0192,0.0226,0.0223,0,0,0,0,0,0.0371,0.0413,0.0484,0.0573,0.0657,0.0712,0.0806,0.0838,0.089,0.0904,0.09,0.0819,0.0632,0.0557,0.0416,0.0375,0.0184,0.0201,0.0104,0.0002,0.0004,0.0029,0,0,0,0,0,0,0.038,0.0444,0.0482,0.0591,0.0655,0.0755,0.0818,0.0854,0.0862,0.0888,0.0796,0.0761,0.0583,0.0712,0.0406,0.0366,0.0278,0.012,0.0117,0.0,0.0003,0.0005,0.0031,0,0,0,0,0]}]]